Hourly Data Report for September 28, 2017

All times are specified in Local Standard Time (LST). Add 1 hour to adjust for Daylight Saving Time where and when it is observed.

KAMLOOPS A
BRITISH COLUMBIA

50°42'09.000" N
120°26'55.000" W
345.30 m
1163781
71887
YKA

Download Data

Hourly Data (September 2017)
Hourly Data Report for September 28, 2017
Temp Definition
°C
Dew Point Temp Definition
°C
Rel Hum Definition
%
Wind Dir Definition
10's deg

Wind Spd Definition
km/h
Visibility Definition
km
Stn Press Definition
kPa
Hmdx Definition


Wind Chill Definition


Weather Definition


TIME
00:00 Legend Double Dagger 14.4 7.8 64 12 15 64.4 97.95     LegendNANA
01:00 Legend Double Dagger 13.4 7.8 69 11 17 64.4 97.97     Clear
02:00 Legend Double Dagger 13.3 8.1 70 12 15 64.4 97.97     LegendNANA
03:00 Legend Double Dagger 11.7 7.4 75 10 18 64.4 97.96     LegendNANA
04:00 Legend Double Dagger 11.2 7.0 75 11 12 64.4 97.96     Clear
05:00 Legend Double Dagger 10.0 6.9 81 11 16 64.4 97.95     LegendNANA
06:00 Legend Double Dagger 9.3 6.8 84 10 12 64.4 97.95     LegendNANA
07:00 Legend Double Dagger 10.5 7.4 81 11 21 64.4 97.95     Clear
08:00 Legend Double Dagger 12.1 7.5 73 11 18 64.4 97.91     LegendNANA
09:00 Legend Double Dagger 14.4 7.9 65 10 18 64.4 97.86     LegendNANA
10:00 Legend Double Dagger 16.7 8.6 59 11 19 64.4 97.76     Clear
11:00 Legend Double Dagger 18.6 8.6 52 12 16 64.4 97.62     LegendNANA
12:00 Legend Double Dagger 21.3 9.0 45 11 19 64.4 97.46     LegendNANA
13:00 Legend Double Dagger 24.6 9.9 39 10 18 64.4 97.31 26   Clear
14:00 Legend Double Dagger 26.5 9.3 33 10 18 64.4 97.20 27   LegendNANA
15:00 Legend Double Dagger 28.2 7.0 26 10 15 64.4 97.11 28   LegendNANA
16:00 Legend Double Dagger 28.8 5.8 23 9 19 64.4 97.03 28   Clear
17:00 Legend Double Dagger 26.2 6.8 29 11 13 64.4 96.97 26   LegendNANA
18:00 Legend Double Dagger 26.6 1.5 19 14 28 64.4 96.96 25   LegendNANA
19:00 Legend Double Dagger 24.1 3.3 25 36 7 64.4 97.02     Clear
20:00 Legend Double Dagger 23.0 3.8 28 10 12 64.4 97.05     LegendNANA
21:00 Legend Double Dagger 23.0 4.4 30 13 18 64.4 97.06     LegendNANA
22:00 Legend Double Dagger 18.7 7.0 46 9 21 64.4 97.09     Clear
23:00 Legend Double Dagger 18.1 7.5 50 11 23 64.4 97.09     LegendNANA

Notes on Data Quality.

Legend

  • E = Estimated
  • M = Missing
  • NA = Not Available
  • ‡ = Partner data that is not subject to review by the National Climate Archives
Date modified: